Accueil
METAR-TAF:

METAR-TAF

Aéroports :

Meeker Airport

Meeker, Colorado, États-Unis

latitude: 40-02-32N, longitude: 107-53-23W, altitude: 1948 m

Observation

Le bulletin a été fait il y a 1 heure et 5 minutes, à 06:53 UTC
Vent 7 kt de est/nord-est
Température 7°C
Humidité 33%
Pression 1026 hPa
Visibilité: 16.1 km
Ciel clair

METAR: KEEO 180653Z AUTO 07007KT 10SM CLR 07/M08 A3031 RMK AO2 SLP191 T00721083 402780050

Heure: 01:58 (07:58 UTC)


TAF: absent

Observations et prévisions météorologiques de plus de 4000 aéroports (messages METAR et TAF).

Les stations disponibles sont représentées par des disques jaunes et rouges sur la carte.

Passer la souris dessus pour voir le nom de la station.

Cliquer dessus pour voir les observations et prévisions météorologiques.

Pour changer de carte: cliquez sur les boutons verts avec une croix noire pour zoomer, sur le bouton vert avec un tiret pour effectuer un zoom arrière, ou sur les flèches vertes pour les cartes adjacentes.


METAR-TAF: